TimeMDT,TemperatureF,Dew PointF,Humidity,Sea Level PressureIn,VisibilityMPH,Wind Direction,Wind SpeedMPH,Gust SpeedMPH,PrecipitationIn,Events,Conditions,WindDirDegrees,DateUTC
12:53 AM,59.0,32.0,36,29.58,10.0,WSW,24.2,36.8,N/A,,Overcast,240,2013-09-27 06:53:00
1:53 AM,59.0,25.0,27,29.61,10.0,WSW,11.5,-,N/A,,Overcast,250,2013-09-27 07:53:00
2:53 AM,57.9,24.1,27,29.62,10.0,WSW,10.4,-,N/A,,Overcast,250,2013-09-27 08:53:00
3:53 AM,57.0,23.0,27,29.63,10.0,WSW,12.7,-,N/A,,Overcast,240,2013-09-27 09:53:00
4:53 AM,55.9,24.1,29,29.63,10.0,WSW,11.5,-,N/A,,Mostly Cloudy,240,2013-09-27 10:53:00
5:53 AM,53.1,24.1,32,29.66,10.0,West,17.3,-,N/A,,Clear,260,2013-09-27 11:53:00
6:53 AM,51.1,24.1,35,29.70,10.0,West,17.3,-,N/A,,Partly Cloudy,260,2013-09-27 12:53:00
7:53 AM,51.1,25.0,36,29.73,10.0,West,12.7,20.7,N/A,,Overcast,260,2013-09-27 13:53:00
8:53 AM,51.1,26.1,38,29.76,10.0,WSW,17.3,-,N/A,,Overcast,250,2013-09-27 14:53:00
9:53 AM,53.1,26.1,35,29.79,10.0,West,16.1,-,N/A,,Clear,260,2013-09-27 15:53:00
10:53 AM,55.0,27.0,34,29.82,10.0,WNW,12.7,19.6,N/A,,Clear,290,2013-09-27 16:53:00
11:53 AM,57.9,25.0,28,29.83,10.0,WNW,13.8,29.9,N/A,,Mostly Cloudy,290,2013-09-27 17:53:00
12:53 PM,57.9,26.1,30,29.84,10.0,West,15.0,21.9,N/A,,Overcast,260,2013-09-27 18:53:00
1:53 PM,59.0,25.0,27,29.84,10.0,WNW,11.5,-,N/A,,Overcast,290,2013-09-27 19:53:00
2:53 PM,61.0,21.9,22,29.84,10.0,West,13.8,20.7,N/A,,Partly Cloudy,260,2013-09-27 20:53:00
3:53 PM,60.1,21.9,23,29.87,10.0,WNW,15.0,24.2,N/A,,Mostly Cloudy,290,2013-09-27 21:53:00
4:53 PM,59.0,21.0,23,29.90,10.0,NW,18.4,24.2,N/A,,Mostly Cloudy,320,2013-09-27 22:53:00
5:53 PM,57.9,23.0,26,29.95,10.0,NW,21.9,-,N/A,,Clear,320,2013-09-27 23:53:00
6:53 PM,55.0,24.1,30,30.00,10.0,WNW,17.3,24.2,N/A,,Clear,290,2013-09-28 00:53:00
7:53 PM,53.1,24.1,32,30.03,10.0,WNW,10.4,-,N/A,,Clear,290,2013-09-28 01:53:00
8:53 PM,50.0,23.0,35,30.06,10.0,WNW,13.8,-,N/A,,Clear,300,2013-09-28 02:53:00
9:53 PM,48.0,23.0,37,30.09,10.0,WNW,8.1,-,N/A,,Clear,290,2013-09-28 03:53:00
10:53 PM,45.0,23.0,42,30.12,10.0,Calm,Calm,-,N/A,,Clear,0,2013-09-28 04:53:00
11:53 PM,45.0,21.9,40,30.11,10.0,WNW,9.2,-,N/A,,Clear,290,2013-09-28 05:53:00